Location: Newark
(15.4608°S, 41.1635°W)
Time: 22:15:54
(UTC+00:00)

deb Explorer IX - Visible Passes

Search period start: 30 July 2021 00:00
Search period end: 09 August 2021 00:00
Orbit: 543 x 1094 km, 38.8° (Epoch: 28 July)

Date Brightness Start Highest point End Pass type
(mag) Time Alt. Az. Time Alt. Az. Time Alt. Az.
01 Aug ? 22:48:45 10° N 22:49:29 12° NNE 22:49:29 12° NNE visible
02 Aug ? 07:52:59 10° S 07:53:57 11° SSE 07:54:54 10° SSE visible
02 Aug ? 22:24:31 10° N 22:26:54 14° NNE 22:26:54 14° NNE visible
03 Aug ? 07:28:23 10° S 07:29:52 11° SSE 07:31:17 10° SE visible
03 Aug ? 22:00:19 10° NNE 22:04:07 15° NE 22:04:22 15° NE visible
03 Aug ? 23:43:56 10° NW 23:45:37 18° NW 23:45:37 18° NW visible
04 Aug ? 07:05:39 12° SSE 07:05:46 12° SSE 07:07:34 10° SE visible
04 Aug ? 21:36:08 10° NNE 21:39:50 15° NE 21:41:53 13° ENE visible
04 Aug ? 23:19:39 10° NW 23:23:08 31° NW 23:23:08 31° NW visible
05 Aug ? 06:42:59 11° SE 06:42:59 11° SE 06:43:47 10° SE visible
05 Aug ? 08:24:28 10° SW 08:29:22 53° SE 08:33:39 10° ENE visible
05 Aug ? 21:11:59 10° NNE 21:15:32 14° NE 21:19:12 10° ENE visible
05 Aug ? 22:55:23 10° NW 23:00:42 52° NNW 23:00:42 52° NNW visible
06 Aug ? 08:01:36 18° SW 08:05:17 54° SE 08:09:39 10° ENE visible
06 Aug ? 22:31:07 10° NW 22:38:09 71° NE 22:38:17 70° NE visible
07 Aug ? 00:19:25 10° W 00:19:32 10° W 00:19:32 10° W visible
07 Aug ? 07:39:02 32° SSW 07:41:09 55° SE 07:45:40 10° ENE visible
07 Aug ? 22:06:51 10° NW 22:13:48 70° NE 22:15:52 48° ESE visible
07 Aug ? 23:55:05 10° W 23:57:07 18° W 23:57:07 18° W visible
08 Aug ? 07:16:30 53° SSE 07:17:00 56° SE 07:21:38 10° ENE visible
08 Aug ? 21:42:37 10° NW 21:49:26 70° NE 21:53:25 29° ESE visible
08 Aug ? 23:30:45 10° W 23:34:41 27° WSW 23:34:41 27° WSW visible
